Location: Passau
(48.5721°N, 13.4363°E)
Time: 06:42:55
(UTC+01:00)

Amateur Radio Satellites - All Passes

Search period start: 24 November 2017 06:12
Search period end: 25 November 2017 06:12
Location: Passau, 48.5721°N, 13.4363°E

Satellite Date Start Highest point End Downlink Frequencies (MHz)
Time Altitude Azimuth
KAITUO 1B 24 Nov 06:17:32 06:21:15 53° 100° (E) 06:24:58 145.475/437.950
STARS 24 Nov 06:38:18 06:39:55 12° 273° (W) 06:41:31 437.465
XW-2D 24 Nov 06:40:24 06:44:10 59° 287° (WNW) 06:47:56 145.860 - 145.880
CUTE-I 24 Nov 06:41:37 06:47:02 83° 105° (ESE) 06:52:24 437.470
PCSat 24 Nov 06:43:22 06:47:43 24° 34° (NE) 06:52:04 145.827
CUBEBUG 2 24 Nov 06:49:56 06:53:23 24° 93° (E) 06:56:46 437.445
XW-2B 24 Nov 06:55:28 06:59:06 42° 289° (WNW) 07:02:42 145.730 - 145.750
NUDT-PHONESAT 24 Nov 06:56:52 07:00:31 55° 287° (WNW) 07:04:10 437.300
CUTE 1.7 + AOD 2 24 Nov 06:57:41 07:01:51 49° 99° (E) 07:06:01 437.475
AO-7 24 Nov 06:59:46 07:04:32 17° 324° (NW) 07:09:19 .
FO-29 24 Nov 07:14:15 07:21:02 60° 67° (ENE) 07:28:34 435.910
STRAND 1 24 Nov 07:16:22 07:21:15 43° 262° (W) 07:26:10 437.568
AAUSAT CUBESAT 2 24 Nov 07:19:51 07:23:20 25° 93° (E) 07:26:47 437.432
XW-2C 24 Nov 07:21:44 07:24:46 23° 294° (WNW) 07:27:48 145.795 - 145.815
SEEDS 24 Nov 07:22:06 07:26:18 55° 100° (E) 07:30:28 437.485
ZACube-1 24 Nov 07:23:57 07:26:48 18° 91° (E) 07:29:39 437.345
LilacSat-2 24 Nov 07:27:49 07:30:36 19° 296° (WNW) 07:33:24 437.200
XW-2F 24 Nov 07:29:38 07:32:30 21° 295° (WNW) 07:35:22 145.980 - 146.000
XW-2A 24 Nov 07:31:13 07:34:16 31° 97° (E) 07:37:19 145.665 - 145.685
HO-68 24 Nov 07:39:32 07:46:48 88° 108° (ESE) 07:53:59 435.675
UWE-3 24 Nov 07:39:54 07:43:53 45° 98° (E) 07:47:53 435.000/436.395/437.385
KAITUO 1B 24 Nov 07:52:35 07:54:50 15° 298° (WNW) 07:57:06 145.475/437.950
YUBILEINY 24 Nov 08:06:06 08:11:51 19° 309° (NW) 08:17:39 435.215
AO-73 24 Nov 08:12:12 08:16:13 48° 99° (E) 08:20:15 145.935
CUTE-I 24 Nov 08:22:50 08:26:26 19° 304° (NW) 08:30:01 437.470
Oscar 11 24 Nov 08:25:01 08:29:12 45° 98° (E) 08:33:22 .
CUBEBUG 2 24 Nov 08:26:17 08:30:06 35° 292° (WNW) 08:33:52 437.445
PCSat 24 Nov 08:26:23 08:31:51 88° 237° (WSW) 08:37:16 145.827
BEESAT 3 24 Nov 08:33:50 08:36:29 17° 30° (NNE) 08:39:06 437.485
CUTE 1.7 + AOD 2 24 Nov 08:34:14 08:37:22 20° 297° (WNW) 08:40:30 437.475
UNISAT 6 24 Nov 08:35:08 08:39:32 53° 71° (ENE) 08:43:52 437.425
PRISM 24 Nov 08:37:36 08:40:48 22° 63° (ENE) 08:44:01 437.425
TIGRISAT 24 Nov 08:38:36 08:43:00 53° 71° (ENE) 08:47:18 435.000
AAUSAT CUBESAT 2 24 Nov 08:55:00 08:58:52 36° 291° (WNW) 09:02:42 437.432
DELFI C3 24 Nov 08:56:22 08:59:29 21° 93° (E) 09:02:35 145.870
SEEDS 24 Nov 08:58:41 09:01:36 18° 298° (WNW) 09:04:30 437.485
ZACube-1 24 Nov 08:59:21 09:03:22 49° 289° (WNW) 09:07:24 437.345
FO-29 24 Nov 09:00:20 09:06:30 34° 270° (W) 09:13:15 435.910
AIST 2D 24 Nov 09:04:02 09:04:35 10° 60° (ENE) 09:05:07 435.315
XW-2A 24 Nov 09:04:20 09:06:47 19° 295° (WNW) 09:09:14 145.665 - 145.685
EO-88 24 Nov 09:13:51 09:16:07 16° 91° (E) 09:18:23 145.990 - 145.960
UWE-3 24 Nov 09:17:02 09:20:04 20° 297° (WNW) 09:23:07 435.000/436.395/437.385
AO-85 24 Nov 09:18:58 09:21:12 13° 21° (NNE) 09:23:31 145.980
Max Valier Satellite 24 Nov 09:22:16 09:25:26 27° 95° (E) 09:28:36 145.860
HO-68 24 Nov 09:28:13 09:33:42 24° 309° (NW) 09:39:11 435.675
POLYITAN 1 24 Nov 09:38:30 09:40:24 13° 58° (ENE) 09:42:18 437.675
AO-73 24 Nov 09:49:10 09:52:10 20° 297° (WNW) 09:55:09 145.935
BEESAT 2 24 Nov 09:52:38 09:56:00 24° 36° (NE) 09:59:19 435.950
QB50P2 24 Nov 10:00:27 10:03:44 22° 63° (ENE) 10:07:00 145.880/145.840
Oscar 11 24 Nov 10:01:44 10:05:05 22° 297° (WNW) 10:08:25 .
BEESAT 3 24 Nov 10:10:40 10:14:39 80° 49° (NE) 10:18:34 437.485
PCSat 24 Nov 10:11:20 10:14:28 16° 256° (WSW) 10:17:34 145.827
PRISM 24 Nov 10:11:53 10:15:49 42° 261° (W) 10:19:49 437.425
UNISAT 6 24 Nov 10:13:18 10:16:32 19° 269° (W) 10:19:44 437.425
TIGRISAT 24 Nov 10:16:44 10:19:58 19° 269° (W) 10:23:10 435.000
DELFI C3 24 Nov 10:30:37 10:34:21 38° 291° (WNW) 10:38:03 145.870
AIST 2D 24 Nov 10:33:44 10:37:11 74° 257° (WSW) 10:40:41 435.315
DUCHIFAT 1 24 Nov 10:43:56 10:47:52 40° 69° (ENE) 10:51:48 145.980
EO-88 24 Nov 10:46:29 10:50:00 44° 289° (WNW) 10:53:29 145.990 - 145.960
FALCONSAT 3 24 Nov 10:51:47 10:52:37 11° 184° (S) 10:53:28 435.103
EO-79 24 Nov 10:55:05 10:59:18 66° 73° (ENE) 11:03:30 145.935-145.965
Oscar 19 24 Nov 10:55:09 10:57:37 14° 53° (NE) 11:00:04 437.125/150
Max Valier Satellite 24 Nov 10:56:07 10:59:12 26° 293° (WNW) 11:02:17 145.860
NANOSAT C BR1 24 Nov 10:56:09 11:00:18 60° 73° (ENE) 11:04:28 145.865
AO-85 24 Nov 10:58:27 11:02:46 40° 43° (NE) 11:07:23 145.980
LO-87 24 Nov 11:00:25 11:03:42 34° 97° (E) 11:06:57 145.935 - 145.965
AO-91 24 Nov 11:01:33 11:04:28 15° 56° (NE) 11:07:20 145.960
POLYITAN 1 24 Nov 11:11:19 11:15:34 85° 257° (WSW) 11:19:49 437.675
BUGSAT 1 24 Nov 11:23:53 11:27:28 29° 66° (ENE) 11:31:03 437.445
BEESAT 2 24 Nov 11:30:02 11:34:02 57° 236° (SW) 11:37:55 435.950
QB50P2 24 Nov 11:35:12 11:39:15 44° 261° (W) 11:43:20 145.880/145.840
O/OREOS (USA 219) 24 Nov 11:41:48 11:43:59 13° 98° (E) 11:46:10 437.305
ESTCUBE 1 24 Nov 11:42:31 11:47:04 72° 103° (ESE) 11:51:36 437.505/2401.250
Gurwin Techsat 1B 24 Nov 11:44:19 11:48:36 25° 60° (ENE) 11:52:53 435.225
VELOX 1 24 Nov 11:49:36 11:52:18 16° 90° (E) 11:54:59 145.980
BEESAT 3 24 Nov 11:49:51 11:51:35 13° 250° (WSW) 11:53:19 437.485
M-CUBED/EXP-1 PRIME 24 Nov 12:14:10 12:16:13 14° 51° (NE) 12:18:19 437.505
DUCHIFAT 1 24 Nov 12:20:21 12:23:41 22° 267° (W) 12:27:00 145.980
SPROUT 24 Nov 12:20:23 12:24:30 46° 99° (E) 12:28:34 437.525
AO-7 24 Nov 12:25:59 12:32:16 25° 45° (NE) 12:38:34 .
Oscar 19 24 Nov 12:30:59 12:36:05 75° 73° (ENE) 12:41:13 437.125/150
EO-79 24 Nov 12:33:14 12:35:30 14° 271° (W) 12:37:45 145.935-145.965
NANOSAT C BR1 24 Nov 12:33:54 12:36:24 15° 270° (W) 12:38:54 145.865
LO-87 24 Nov 12:34:19 12:36:53 19° 295° (WNW) 12:39:28 145.935 - 145.965
AO-91 24 Nov 12:34:41 12:40:05 76° 74° (ENE) 12:45:24 145.960
AO-85 24 Nov 12:38:52 12:43:12 38° 241° (WSW) 12:47:49 145.980
ITAMSAT 1 24 Nov 12:55:32 12:57:25 12° 50° (NE) 12:59:18 435.822/435.867
BUGSAT 1 24 Nov 12:59:02 13:02:46 31° 264° (W) 13:06:29 437.445
UKube-1 24 Nov 13:00:16 13:01:59 12° 88° (E) 13:03:43 .
NO-84 24 Nov 13:14:11 13:15:28 12° 125° (SE) 13:16:46 435.350 FM
O/OREOS (USA 219) 24 Nov 13:18:07 13:22:44 81° 297° (WNW) 13:27:22 437.305
ESTCUBE 1 24 Nov 13:20:31 13:23:21 17° 301° (WNW) 13:26:10 437.505/2401.250
50 SAT 24 Nov 13:22:12 13:25:05 29° 97° (E) 13:27:56 437.505
Gurwin Techsat 1B 24 Nov 13:22:59 13:28:11 57° 259° (W) 13:33:28 435.225
VELOX 1 24 Nov 13:24:45 13:29:11 65° 288° (WNW) 13:33:34 145.980
M-CUBED/EXP-1 PRIME 24 Nov 13:46:17 13:49:58 77° 252° (WSW) 13:54:01 437.505
SPROUT 24 Nov 13:56:53 14:00:06 21° 297° (WNW) 14:03:17 437.525
DX 1 24 Nov 13:59:23 14:03:47 72° 104° (ESE) 14:08:08 434.975-435.025
Oscar 19 24 Nov 14:12:46 14:15:59 17° 271° (W) 14:19:13 437.125/150
AO-91 24 Nov 14:13:18 14:16:59 19° 271° (W) 14:20:41 145.960
YUBILEINY 24 Nov 14:13:48 14:20:01 20° 53° (NE) 14:26:11 435.215
AO-7 24 Nov 14:15:38 14:23:55 81° 67° (ENE) 14:32:16 .
ITAMSAT 1 24 Nov 14:30:44 14:35:53 62° 71° (ENE) 14:41:05 435.822/435.867
UKube-1 24 Nov 14:34:13 14:38:35 80° 286° (WNW) 14:42:53 .
NO-84 24 Nov 14:48:21 14:52:00 66° 144° (SE) 14:55:59 435.350 FM
50 SAT 24 Nov 14:54:41 14:56:58 18° 295° (WNW) 14:59:15 437.505
O/OREOS (USA 219) 24 Nov 15:00:14 15:02:54 15° 317° (NW) 15:05:36 437.305
MOZHAYETS 4 24 Nov 15:03:18 15:07:41 44° 98° (E) 15:12:03
BEESAT 24 Nov 15:11:26 15:15:55 39° 98° (E) 15:20:20 436.000
DOVE 4 24 Nov 15:23:14 15:27:56 36° 66° (ENE) 15:32:45 437.250
ITUPSAT 1 24 Nov 15:23:26 15:28:04 49° 100° (E) 15:32:40 437.325
CUBESAT XI-V 24 Nov 15:24:34 15:28:00 20° 91° (E) 15:31:26 437.345
DX 1 24 Nov 15:36:47 15:39:26 16° 302° (WNW) 15:42:03 434.975-435.025
XW-2D 24 Nov 15:53:19 15:54:47 12° 60° (ENE) 15:56:15 145.860 - 145.880
RS-15 24 Nov 15:56:43 16:02:01 14° 92° (E) 16:07:18 29.354- 29.394
XW-2B 24 Nov 16:07:19 16:09:37 16° 62° (ENE) 16:11:56 145.730 - 145.750
NUDT-PHONESAT 24 Nov 16:08:01 16:09:14 11° 60° (ENE) 16:10:26 437.300
YUBILEINY 24 Nov 16:09:41 16:18:36 75° 78° (ENE) 16:27:25 435.215
AO-7 24 Nov 16:10:56 16:17:35 26° 268° (W) 16:24:17 .
ITAMSAT 1 24 Nov 16:11:53 16:15:47 21° 269° (W) 16:19:42 435.822/435.867
UKube-1 24 Nov 16:12:25 16:13:51 11° 305° (NW) 16:15:18 .
NO-84 24 Nov 16:25:54 16:29:34 40° 345° (NNW) 16:33:29 435.350 FM
HO-68 24 Nov 16:26:18 16:31:50 25° 52° (NE) 16:37:23 435.675
CUTE-I 24 Nov 16:28:13 16:32:55 32° 63° (ENE) 16:37:39 437.470
KKS-1 24 Nov 16:30:34 16:33:50 20° 92° (E) 16:37:04 437.445
XW-2C 24 Nov 16:32:03 16:35:16 28° 67° (ENE) 16:38:31 145.795 - 145.815
LilacSat-2 24 Nov 16:38:15 16:41:41 35° 69° (ENE) 16:45:09 437.200
XW-2F 24 Nov 16:39:17 16:42:35 31° 68° (ENE) 16:45:55 145.980 - 146.000
MOZHAYETS 4 24 Nov 16:40:54 16:44:37 25° 297° (WNW) 16:48:19
STARS 24 Nov 16:46:05 16:47:35 12° 87° (E) 16:49:05 437.465
BEESAT 24 Nov 16:49:27 16:53:33 29° 296° (WNW) 16:57:39 436.000
KAITUO 1B 24 Nov 17:00:43 17:04:12 41° 71° (ENE) 17:07:43 145.475/437.950
DOVE 4 24 Nov 17:00:47 17:05:32 37° 265° (W) 17:10:28 437.250
CUBESAT XI-V 24 Nov 17:01:06 17:05:42 55° 289° (WNW) 17:10:17 437.345
ITUPSAT 1 24 Nov 17:01:48 17:05:36 24° 299° (WNW) 17:09:24 437.325
XW-2D 24 Nov 17:24:42 17:28:25 72° 258° (WSW) 17:32:11 145.860 - 145.880
NUDT-PHONESAT 24 Nov 17:38:53 17:42:31 73° 258° (WSW) 17:46:12 437.300
XW-2B 24 Nov 17:39:47 17:43:26 50° 261° (W) 17:47:07 145.730 - 145.750
CUBEBUG 2 24 Nov 17:51:06 17:55:10 34° 68° (ENE) 17:59:08 437.445
CUTE 1.7 + AOD 2 24 Nov 17:53:35 17:57:42 55° 72° (ENE) 18:01:51 437.475
RS-15 24 Nov 17:59:45 18:11:35 57° 115° (ESE) 18:23:19 29.354- 29.394
NO-84 24 Nov 18:03:54 18:07:37 34° 6° (N) 18:11:29 435.350 FM
XW-2A 24 Nov 18:06:07 18:08:37 20° 66° (ENE) 18:11:06 145.665 - 145.685
XW-2C 24 Nov 18:06:17 18:09:25 25° 265° (W) 18:12:36 145.795 - 145.815
KKS-1 24 Nov 18:06:20 18:10:41 51° 290° (WNW) 18:14:59 437.445
YUBILEINY 24 Nov 18:07:26 18:14:33 28° 280° (W) 18:21:39 435.215
CUTE-I 24 Nov 18:07:43 18:12:50 44° 262° (W) 18:17:59 437.470
HO-68 24 Nov 18:11:32 18:18:46 87° 252° (WSW) 18:26:02 435.675
LilacSat-2 24 Nov 18:13:11 18:16:04 21° 267° (W) 18:18:58 437.200
AAUSAT CUBESAT 2 24 Nov 18:13:22 18:16:50 26° 66° (ENE) 18:20:20 437.432
XW-2F 24 Nov 18:13:45 18:16:44 23° 266° (W) 18:19:46 145.980 - 146.000
SEEDS 24 Nov 18:16:57 18:21:03 60° 73° (ENE) 18:25:13 437.485
STARS 24 Nov 18:20:07 18:24:33 85° 286° (WNW) 18:28:55 437.465
ZACube-1 24 Nov 18:23:09 18:26:31 23° 65° (ENE) 18:29:51 437.345
KAITUO 1B 24 Nov 18:35:56 18:38:23 17° 269° (W) 18:40:52 145.475/437.950
UWE-3 24 Nov 18:40:00 18:44:18 59° 73° (ENE) 18:48:32 435.000/436.395/437.385
AO-73 24 Nov 19:10:54 19:15:05 59° 73° (ENE) 19:19:12 145.935
nSIGHT-1 24 Nov 19:13:31 19:15:38 16° 138° (SE) 19:17:46 .
STRAND 1 24 Nov 19:22:34 19:27:33 49° 99° (E) 19:32:28 437.568
Oscar 11 24 Nov 19:23:06 19:27:17 55° 72° (ENE) 19:31:30 .
CUBEBUG 2 24 Nov 19:27:53 19:31:49 29° 265° (W) 19:35:40 437.445
CUTE 1.7 + AOD 2 24 Nov 19:31:11 19:33:52 16° 270° (W) 19:36:35 437.475
XW-2A 24 Nov 19:38:14 19:41:09 28° 263° (W) 19:44:06 145.665 - 145.685
NO-84 24 Nov 19:41:19 19:45:29 67° 27° (NNE) 19:49:44 435.350 FM
DELFI C3 24 Nov 19:45:08 19:48:11 21° 64° (ENE) 19:51:14 145.870
AAUSAT CUBESAT 2 24 Nov 19:48:25 19:52:10 33° 264° (W) 19:55:59 437.432
SEEDS 24 Nov 19:54:43 19:57:09 15° 271° (W) 19:59:35 437.485
EO-88 24 Nov 19:55:40 19:57:26 13° 61° (ENE) 19:59:12 145.990 - 145.960
STARS 24 Nov 19:58:22 20:00:10 12° 304° (NW) 20:01:58 437.465
ZACube-1 24 Nov 19:58:35 20:02:37 40° 262° (W) 20:06:36 437.345
SO-50 24 Nov 20:02:13 20:04:48 15° 111° (ESE) 20:07:23 436.795
HO-68 24 Nov 20:02:38 20:07:30 19° 273° (W) 20:12:23 435.675
FO-29 24 Nov 20:04:39 20:12:03 42° 94° (E) 20:18:58 435.910
Max Valier Satellite 24 Nov 20:04:45 20:07:35 22° 66° (ENE) 20:10:27 145.860
ISS 24 Nov 20:08:22 20:11:24 35° 147° (SSE) 20:14:27 437.550
O/OREOS (USA 219) 24 Nov 20:08:27 20:09:08 10° 36° (NE) 20:09:50 437.305
RS-15 24 Nov 20:12:00 20:24:13 61° 321° (NW) 20:36:14 29.354- 29.394
UWE-3 24 Nov 20:18:24 20:21:07 16° 270° (W) 20:23:49 435.000/436.395/437.385
nSIGHT-1 24 Nov 20:48:15 20:51:28 79° 154° (SSE) 20:54:41 .
AO-73 24 Nov 20:49:09 20:51:41 15° 270° (W) 20:54:12 145.935
Oscar 11 24 Nov 21:00:55 21:03:45 17° 270° (W) 21:06:38 .
STRAND 1 24 Nov 21:02:13 21:06:29 27° 298° (WNW) 21:10:43 437.568
ESTCUBE 1 24 Nov 21:11:12 21:13:40 15° 58° (ENE) 21:16:10 437.505/2401.250
NO-84 24 Nov 21:18:55 21:22:39 31° 225° (SW) 21:26:24 435.350 FM
DELFI C3 24 Nov 21:18:56 21:22:41 40° 262° (W) 21:26:29 145.870
EO-88 24 Nov 21:27:02 21:30:37 60° 260° (W) 21:34:14 145.990 - 145.960
Max Valier Satellite 24 Nov 21:37:59 21:41:16 32° 264° (W) 21:44:34 145.860
LO-87 24 Nov 21:39:48 21:42:51 26° 67° (ENE) 21:45:53 145.935 - 145.965
SO-50 24 Nov 21:40:10 21:44:38 81° 308° (NW) 21:49:11 436.795
ISS 24 Nov 21:44:32 21:47:47 63° 346° (NNW) 21:51:03 437.550
O/OREOS (USA 219) 24 Nov 21:45:16 21:49:44 49° 58° (ENE) 21:54:07 437.305
PRISM 24 Nov 21:49:37 21:52:41 20° 92° (E) 21:55:43 437.425
FO-29 24 Nov 21:49:38 21:57:11 52° 295° (WNW) 22:04:19 435.910
UNISAT 6 24 Nov 21:59:17 22:03:34 69° 102° (ESE) 22:07:48 437.425
TIGRISAT 24 Nov 22:02:34 22:06:51 68° 103° (ESE) 22:11:03 435.000
nSIGHT-1 24 Nov 22:24:43 22:27:51 47° 356° (N) 22:30:58 .
RS-15 24 Nov 22:28:33 22:39:42 37° 353° (N) 22:50:30 29.354- 29.394
ESTCUBE 1 24 Nov 22:45:23 22:49:52 81° 257° (WSW) 22:54:24 437.505/2401.250
VELOX 1 24 Nov 22:49:59 22:53:29 23° 62° (ENE) 22:57:01 145.980
POLYITAN 1 24 Nov 22:54:07 22:55:41 12° 88° (E) 22:57:15 437.675
PCSat 24 Nov 23:11:51 23:16:49 38° 114° (ESE) 23:21:48 145.827
LO-87 24 Nov 23:13:09 23:16:12 25° 265° (W) 23:19:15 145.935 - 145.965
QB50P2 24 Nov 23:16:21 23:19:41 22° 93° (E) 23:22:59 145.880/145.840
SPROUT 24 Nov 23:16:47 23:20:58 57° 72° (ENE) 23:25:12 437.525
ISS 24 Nov 23:21:21 23:24:33 48° 5° (N) 23:27:44 437.550
SO-50 24 Nov 23:22:27 23:25:48 20° 331° (NNW) 23:29:11 436.795
PRISM 24 Nov 23:24:11 23:28:11 45° 290° (WNW) 23:32:08 437.425
DX 1 24 Nov 23:24:37 23:26:56 14° 57° (ENE) 23:29:15 434.975-435.025
O/OREOS (USA 219) 24 Nov 23:25:20 23:28:49 22° 258° (WSW) 23:32:15 437.305
AIST 2D 24 Nov 23:27:35 23:31:09 79° 102° (ESE) 23:34:41 435.315
FO-29 24 Nov 23:36:22 23:40:26 15° 317° (NW) 23:44:27 435.910
UNISAT 6 24 Nov 23:37:17 23:39:46 15° 301° (WNW) 23:42:15 437.425
TIGRISAT 24 Nov 23:40:32 23:43:02 15° 301° (WNW) 23:45:31 435.000
50 SAT 24 Nov 23:52:55 23:55:14 19° 65° (ENE) 23:57:35 437.505
UKube-1 24 Nov 23:57:38 00:00:36 18° 60° (ENE) 00:03:36 .
DUCHIFAT 1 24 Nov 23:59:12 00:03:11 42° 98° (E) 00:07:07 145.980
nSIGHT-1 25 Nov 00:01:08 00:04:21 66° 16° (NNE) 00:07:32 .
EO-79 25 Nov 00:11:21 00:15:33 73° 103° (ESE) 00:19:44 145.935-145.965
NANOSAT C BR1 25 Nov 00:11:56 00:16:07 66° 102° (ESE) 00:20:16 145.865
AO-91 25 Nov 00:24:15 00:25:27 11° 83° (E) 00:26:37 145.960
VELOX 1 25 Nov 00:25:23 00:29:40 46° 261° (W) 00:33:59 145.980
POLYITAN 1 25 Nov 00:27:48 00:32:01 77° 284° (WNW) 00:36:11 437.675
MOZHAYETS 4 25 Nov 00:36:29 00:36:44 10° 53° (NE) 00:37:01
BUGSAT 1 25 Nov 00:36:35 00:40:02 26° 95° (E) 00:43:27 437.445
Oscar 19 25 Nov 00:39:24 00:43:06 20° 90° (E) 00:46:49 437.125/150
RS-15 25 Nov 00:44:18 00:55:52 46° 26° (NNE) 01:06:51 29.354- 29.394
BEESAT 25 Nov 00:47:23 00:49:00 12° 53° (NE) 00:50:38 436.000
QB50P2 25 Nov 00:51:41 00:55:37 40° 291° (WNW) 00:59:33 145.880/145.840
SPROUT 25 Nov 00:54:28 00:57:13 17° 270° (W) 00:59:59 437.525
PCSat 25 Nov 00:55:01 01:00:11 43° 314° (NW) 01:05:22 145.827
ISS 25 Nov 00:57:54 01:01:10 72° 205° (SSW) 01:04:25 437.550
DX 1 25 Nov 00:58:08 01:02:31 82° 258° (WSW) 01:06:56 434.975-435.025
ITUPSAT 1 25 Nov 00:58:44 01:01:15 14° 55° (NE) 01:03:46 437.325
AIST 2D 25 Nov 01:03:35 01:03:45 10° 300° (WNW) 01:03:53 435.315
SO-50 25 Nov 01:06:50 01:08:01 11° 356° (N) 01:09:12 436.795
50 SAT 25 Nov 01:24:16 01:27:08 29° 263° (W) 01:30:02 437.505
UKube-1 25 Nov 01:31:57 01:36:13 58° 258° (WSW) 01:40:31 .
Gurwin Techsat 1B 25 Nov 01:35:10 01:40:14 42° 98° (E) 01:45:16 435.225
DUCHIFAT 1 25 Nov 01:35:22 01:38:36 22° 297° (WNW) 01:41:49 145.980
nSIGHT-1 25 Nov 01:37:32 01:40:26 31° 215° (SW) 01:43:19 .
BEESAT 3 25 Nov 01:40:21 01:44:02 37° 120° (ESE) 01:47:46 437.485
EO-79 25 Nov 01:48:29 01:50:46 14° 301° (WNW) 01:53:03 145.935-145.965
NANOSAT C BR1 25 Nov 01:48:50 01:51:20 16° 300° (WNW) 01:53:49 145.865
AO-91 25 Nov 01:58:10 02:02:46 85° 288° (WNW) 02:06:51 145.960
POLYITAN 1 25 Nov 02:06:18 02:07:01 10° 305° (NW) 02:07:45 437.675
MOZHAYETS 4 25 Nov 02:08:30 02:13:00 65° 73° (ENE) 02:17:32
BUGSAT 1 25 Nov 02:11:50 02:15:24 31° 293° (WNW) 02:18:56 437.445
AO-7 25 Nov 02:14:04 02:19:54 20° 88° (E) 02:25:41 .
Oscar 19 25 Nov 02:17:46 02:22:53 65° 289° (WNW) 02:28:00 437.125/150
BEESAT 25 Nov 02:21:10 02:25:55 70° 72° (ENE) 02:30:41 436.000
CUBESAT XI-V 25 Nov 02:31:14 02:35:12 29° 65° (ENE) 02:39:12 437.345
ITUPSAT 1 25 Nov 02:33:36 02:38:23 88° 74° (ENE) 02:43:12 437.325
ISS 25 Nov 02:35:14 02:37:11 15° 223° (SW) 02:39:07 437.550
ITAMSAT 1 25 Nov 02:40:56 02:44:04 16° 88° (E) 02:47:12 435.822/435.867
PCSat 25 Nov 02:41:56 02:45:02 15° 338° (NNW) 02:48:08 145.827
SO-50 25 Nov 02:47:44 02:50:26 15° 21° (NNE) 02:53:09 436.795
M-CUBED/EXP-1 PRIME 25 Nov 02:54:21 02:58:45 44° 104° (ESE) 03:03:12 437.505
AO-85 25 Nov 02:57:23 03:00:37 25° 116° (ESE) 03:04:00 145.980
RS-15 25 Nov 02:57:38 03:09:38 83° 235° (SW) 03:20:56 29.354- 29.394
BEESAT 2 25 Nov 03:01:07 03:05:07 72° 126° (SE) 03:09:12 435.950
Gurwin Techsat 1B 25 Nov 03:15:22 03:20:04 32° 297° (WNW) 03:24:44 435.225
BEESAT 3 25 Nov 03:18:02 03:21:38 31° 320° (NW) 03:25:15 437.485
YUBILEINY 25 Nov 03:23:04 03:28:17 18° 72° (ENE) 03:33:30 435.215
KKS-1 25 Nov 03:31:48 03:35:41 30° 65° (ENE) 03:39:36 437.445
AO-91 25 Nov 03:36:29 03:38:20 12° 306° (NW) 03:40:07 145.960
STARS 25 Nov 03:45:23 03:48:27 19° 60° (ENE) 03:51:31 437.465
MOZHAYETS 4 25 Nov 03:47:47 03:50:37 16° 271° (W) 03:53:27
Oscar 19 25 Nov 03:59:19 04:01:15 12° 308° (NW) 04:03:11 437.125/150
BEESAT 25 Nov 04:01:14 04:04:11 16° 270° (W) 04:07:09 436.000
AO-7 25 Nov 04:05:28 04:13:53 83° 109° (ESE) 04:22:17 .
CUBESAT XI-V 25 Nov 04:08:14 04:12:28 36° 264° (W) 04:16:47 437.345
ITUPSAT 1 25 Nov 04:14:46 04:16:52 13° 273° (W) 04:18:59 437.325
ITAMSAT 1 25 Nov 04:18:56 04:24:11 80° 287° (WNW) 04:29:22 435.822/435.867
SO-50 25 Nov 04:27:31 04:31:59 46° 43° (NE) 04:36:30 436.795
M-CUBED/EXP-1 PRIME 25 Nov 04:29:04 04:32:55 28° 301° (WNW) 04:36:51 437.505
PCSat 25 Nov 04:29:34 04:30:55 11° 5° (N) 04:32:15 145.827
AO-85 25 Nov 04:37:03 04:40:48 42° 316° (NW) 04:44:48 145.980
BEESAT 2 25 Nov 04:40:08 04:43:17 21° 326° (NW) 04:46:27 435.950
DOVE 4 25 Nov 04:55:28 05:00:32 53° 99° (E) 05:05:19 437.250
BEESAT 3 25 Nov 04:59:36 05:00:22 10° 342° (NNW) 05:01:08 437.485
STRAND 1 25 Nov 05:05:21 05:08:41 18° 56° (ENE) 05:12:02 437.568
KKS-1 25 Nov 05:08:04 05:12:10 35° 263° (W) 05:16:18 437.445
XW-2B 25 Nov 05:09:34 05:11:25 13° 89° (E) 05:13:15 145.730 - 145.750
RS-15 25 Nov 05:11:28 05:20:13 26° 260° (W) 05:28:39 29.354- 29.394
YUBILEINY 25 Nov 05:14:46 05:23:29 75° 95° (E) 05:32:18 435.215
STARS 25 Nov 05:19:59 05:24:22 60° 258° (WSW) 05:28:46 437.465
XW-2C 25 Nov 05:34:24 05:37:33 24° 94° (E) 05:40:43 145.795 - 145.815
HO-68 25 Nov 05:37:06 05:40:50 15° 84° (E) 05:44:31 435.675
XW-2F 25 Nov 05:41:04 05:44:21 26° 95° (E) 05:47:36 145.980 - 146.000
LilacSat-2 25 Nov 05:41:26 05:44:53 31° 96° (E) 05:48:20 437.200
AO-7 25 Nov 05:58:59 06:05:52 30° 311° (NW) 06:12:47 .
ITAMSAT 1 25 Nov 06:00:01 06:02:50 15° 307° (NW) 06:05:39 435.822/435.867
KAITUO 1B 25 Nov 06:01:30 06:04:59 35° 97° (E) 06:08:29 145.475/437.950
